Flag for Spain Weather past 2 weeks in Granada, Spain

Now
69 °F

Mild.


Feels Like: 69 °F
Forecast: 58 / 96 °F
Wind: 2 mph from Southeast

Location: Granada / Aeropuerto

Current Time: Jul 31, 2015 at 3:40:25 AM

Latest Report: Jul 31, 2015 at 3:00 AM


Visibility: 19 mi

Pressure: 29.81 "Hg (27.49 "Hg at 698m altitude)

Humidity: 45%

Dew point: 47 °F

Location of GranadaLocation

Historic Weather in Granada — Graph

°F

Granada temperature yesterday

Maximum temperature yesterday: 99 °F (at 5:00 PM)
Minimum temperature yesterday: 66 °F (at 8:00 AM)
Average temperature yesterday: 84 °F

Past Weeks' High & Low Weather Summary

 TemperatureHumidityPressure
High108 °F (Jul 28, 5:00 PM)75% (Jul 25, 8:00 AM)30.05 "Hg (Jul 25, 8:00 AM)
Low61 °F (Jul 26, 7:00 AM)9% (Jul 20, 3:00 PM)29.69 "Hg (Jul 29, 7:00 PM)
Average83 °F35%29.90 "Hg
* Reported Jul 16 2:00 AM — Jul 31 2:00 AM, Granada, Weather by CustomWeather, © 2015

Note: Actual official high and low records may vary slightly from our data, if they occured in-between our weather recording intervals... More about our weather records

Advertising

Granada weather history for previous 24 hours

 ConditionsComfort  
Time TempWeatherWind HumidityBarometerVisibility
2:00 AM
Fri, Jul 31
72 °FMild.3 mph41%29.81 "Hg19 mi
1:00 AM74 °FMild.2 mph45%29.81 "Hg19 mi
12:00 AM80 °FPleasantly warm.3 mph33%29.79 "Hg19 mi
10:00 PM
Thu, Jul 30
83 °FPleasantly warm.7 mph28%29.75 "Hg19 mi
9:00 PM90 °FHot.10 mph22%29.72 "Hg19 mi
8:00 PM93 °FPassing clouds.13 mph21%29.70 "Hg19 mi
7:00 PM96 °FExtremely hot.14 mph20%29.69 "Hg15 mi
6:00 PM98 °FExtremely hot.13 mph16%29.69 "Hg16 mi
5:00 PM99 °FPassing clouds.13 mph15%29.70 "Hg19 mi
4:00 PM97 °FExtremely hot.12 mph15%29.72 "Hg19 mi
3:00 PM98 °FPassing clouds.7 mph15%29.73 "Hg19 mi
2:00 PM94 °FPassing clouds.5 mph23%29.76 "Hg19 mi
1:00 PM91 °FHot.2 mph31%29.79 "Hg16 mi
12:00 PM88 °FHot.2 mph34%29.81 "Hg19 mi
11:00 AM83 °FPassing clouds.2 mph41%29.83 "Hg19 mi
10:00 AM80 °FWarm.3 mph45%29.84 "Hg17 mi
8:00 AM66 °FScattered clouds.No wind69%29.88 "Hg16 mi
7:00 AM67 °FMild.No wind52%29.86 "Hg19 mi
6:00 AM68 °FMild.No wind54%29.85 "Hg19 mi
5:00 AM70 °FMild.No wind48%29.84 "Hg19 mi
4:00 AM71 °FMild.2 mph57%29.84 "Hg19 mi
3:00 AM74 °FMild.2 mph42%29.85 "Hg19 mi
Weather by CustomWeather, © 2015

See weather overviewHow to use our weather pages